Погода в Жи-Парана

Бразилия     10°52′42″S   61°56′29″W
темп.,
°C
ветер,
м/с
пор.,
м/с
влажн.,
%
обл.,
%
осадки,
мм/ч
давл.,
гПа
погр.,
м
27 февраля, сб
сб2723:00+23с2297100 0.0 101055
02:00+22с1298100 0.0 100851
05:00+22с1198100 0.2 100925
08:00+24с129794 3.4 1010197
11:00+26зсз1493100 2.5 1011263
14:00+27сз3792100 6.3 1007535
17:00+27зсз149398 3.9 1005554
20:00+24ссз119699 4.4 100724
28 февраля, вс
вс2823:00+23ссз1196100 0.2 100924
02:00+23сз1297100 0.2 100737
05:00+22св1198100 0.3 100723
08:00+24с2397100 0.4 1009178
11:00+27ссз368883 2.2 1008697
14:00+27сз349287 9.3 1005601
17:00+26ссз2595100 6.9 1003351
20:00+24ссз2296100 9.8 100560
1 марта, пн
пн123:00+23с2797100 0.2 1007238
02:00+22с3899100 2.1 1005329
05:00+22ссв2799100 1.8 1006343
08:00+23с3698100 3.3 1008441
11:00+25с3693100 1.1 1009578
14:00+26ссз3594100 7.9 1005600
17:00+25ссз379599 5.8 1004713
20:00+23с289984 6.3 1006440
2 марта, вт
вт223:00+22ссв249998 0.0 1009173
02:00+22с2510099 0.3 1007272
05:00+22ссв2699100 0.1 1008318
08:00+23ссв2598100 0.3 1010390
11:00+25с2395100 2.1 1011495
14:00+25ссв2495100 10.9 1007464
17:00+25ссв389696 4.0 1006617
20:00+23ссв289866 4.7 1009376
3 марта, ср
ср323:00+22ссв299991 0.0 1011463
02:00+22с289993 0.3 1010482
05:00+21ссв2599100 1.3 1010237
08:00+22ссв2499100 3.8 1014302
11:00+22ссв2499100 1.2 1014259
14:00+23с2497100 1.8 1011367
17:00+24ссв379789 3.7 1009470
20:00+22с279992 4.3 1012356